USA 157 (MILSTAR-2 2)

Last updated on Nov. 18, 2019, 4:21 a.m. UTC

1 26715U 01009A   19321.37360882 -.00000358  00000-0  00000+0 0  9990
2 26715   9.1380  31.5323 0001677 239.3600  30.8112  1.00271741  7538
UTC
Height (km)
Latitude
Longitude
Inclination
Orbital Period
UTC large
Height (km)
Speed (km/s)
/
Latitude / Longitude
Inclination (degrees)
Orbital Period (minutes)
Azimuth
Elevation
Range (km)
Doppler Factor
iOS Compass Heading
iOS Angle

Next 30 passes for location: Hong Kong

Rise time Rise Azimuth (degrees) Set time Set Azimuth (degrees) Duration Max altitude (degrees)

No matching passes for this satellites